| time (UTC) | temp C | wind direction | speed KPH | gust KPH | rain 1hr cm | rain 24hr cm | rain mn cm | humidity % | barometer mb |
| 20260504050112 | 13 | 215 | 3.2 | 6.4 | 0.00 | 0.00 | 0.00 | 90 | 1008.5 |
| 20260504045109 | 13 | 216 | 1.6 | 6.4 | 0.00 | 0.00 | 0.00 | 90 | 1008.5 |
| 20260504044106 | 13 | 211 | 3.2 | 6.4 | 0.00 | 0.00 | 0.00 | 90 | 1008.6 |
| 20260504043104 | 13 | 175 | 3.2 | 6.4 | 0.00 | 0.00 | 0.00 | 89 | 1008.5 |
| 20260504042101 | 14 | 234 | 1.6 | 3.2 | 0.00 | 0.00 | 0.00 | 89 | 1008.4 |
| 20260504041058 | 14 | 158 | 0.0 | 3.2 | 0.00 | 0.00 | 0.00 | 89 | 1008.5 |
| 20260504040056 | 14 | 218 | 0.0 | 3.2 | 0.00 | 0.00 | 0.00 | 89 | 1008.6 |
| 20260504035053 | 13 | 0.0 | 0.0 | 0.00 | 0.00 | 0.00 | 89 | 1008.5 | |
| 20260504034050 | 13 | 0.0 | 0.0 | 0.00 | 0.00 | 0.00 | 88 | 1008.7 | |
| 20260504033048 | 14 | 240 | 0.0 | 3.2 | 0.00 | 0.00 | 0.00 | 88 | 1008.6 |
| 20260504032045 | 14 | 162 | 1.6 | 3.2 | 0.00 | 0.00 | 0.00 | 88 | 1008.6 |
| 20260504031043 | 14 | 0.0 | 0.0 | 0.00 | 0.00 | 0.00 | 88 | 1008.7 | |
| 20260504030040 | 14 | 0.0 | 0.0 | 0.00 | 0.00 | 0.00 | 88 | 1009.0 | |
| 20260504025037 | 14 | 0.0 | 0.0 | 0.00 | 0.00 | 0.00 | 88 | 1008.8 | |
| 20260504024034 | 14 | 0.0 | 3.2 | 0.00 | 0.00 | 0.00 | 88 | 1008.8 | |
| 20260504023032 | 14 | 0.0 | 0.0 | 0.00 | 0.00 | 0.00 | 88 | 1008.7 | |
| 20260504022029 | 14 | 171 | 1.6 | 3.2 | 0.00 | 0.00 | 0.00 | 88 | 1008.7 |
| 20260504021027 | 14 | 155 | 3.2 | 6.4 | 0.00 | 0.00 | 0.00 | 88 | 1008.9 |
| 20260504020024 | 14 | 132 | 1.6 | 3.2 | 0.00 | 0.00 | 0.00 | 89 | 1009.1 |
| 20260504015021 | 14 | 0 | 0.0 | 3.2 | 0.00 | 0.00 | 0.00 | 89 | 1009.0 |
| 20260504014019 | 14 | 0.0 | 0.0 | 0.00 | 0.00 | 0.00 | 89 | 1009.0 | |
| 20260504013016 | 13 | 0.0 | 0.0 | 0.00 | 0.00 | 0.00 | 90 | 1009.0 | |
| 20260504012114 | 14 | 210 | 1.6 | 3.2 | 0.00 | 0.00 | 0.00 | 90 | 1009.2 |
| 20260504011111 | 13 | 270 | 0.0 | 3.2 | 0.00 | 0.00 | 0.00 | 90 | 1009.2 |
| 20260504010109 | 13 | 0.0 | 3.2 | 0.00 | 0.00 | 0.00 | 91 | 1009.5 | |
| 20260504005107 | 13 | 303 | 0.0 | 3.2 | 0.00 | 0.00 | 0.00 | 91 | 1009.4 |
| 20260504004104 | 13 | 293 | 0.0 | 3.2 | 0.00 | 0.00 | 0.00 | 91 | 1009.6 |
| 20260504003101 | 13 | 281 | 1.6 | 6.4 | 0.00 | 0.00 | 0.00 | 92 | 1009.6 |
| 20260504002058 | 13 | 300 | 3.2 | 6.4 | 0.00 | 0.00 | 0.00 | 92 | 1009.8 |
| 20260504001056 | 13 | 280 | 4.8 | 6.4 | 0.00 | 0.00 | 0.00 | 92 | 1009.8 |
| 20260504000053 | 13 | 299 | 3.2 | 6.4 | 0.00 | 0.00 | 0.00 | 91 | 1009.8 |
| 20260503235050 | 13 | 309 | 4.8 | 9.7 | 0.00 | 0.00 | 0.00 | 91 | 1009.8 |
| 20260503234048 | 13 | 312 | 3.2 | 6.4 | 0.00 | 0.00 | 0.00 | 92 | 1010.0 |
| 20260503233045 | 13 | 312 | 1.6 | 6.4 | 0.00 | 0.00 | 0.00 | 92 | 1009.9 |
| 20260503232043 | 13 | 12 | 3.2 | 6.4 | 0.00 | 0.00 | 0.00 | 92 | 1010.3 |
| 20260503231040 | 13 | 11 | 3.2 | 6.4 | 0.00 | 0.00 | 0.00 | 92 | 1010.1 |
| 20260503230038 | 13 | 323 | 1.6 | 3.2 | 0.00 | 0.00 | 0.00 | 92 | 1010.2 |
| 20260503225036 | 13 | 351 | 3.2 | 6.4 | 0.00 | 0.00 | 0.00 | 92 | 1010.0 |
| 20260503224033 | 13 | 339 | 3.2 | 6.4 | 0.00 | 0.00 | 0.00 | 93 | 1010.1 |
| 20260503223031 | 13 | 11 | 3.2 | 6.4 | 0.00 | 0.00 | 0.00 | 93 | 1010.1 |
| 20260503222028 | 13 | 342 | 3.2 | 6.4 | 0.00 | 0.00 | 0.00 | 94 | 1010.1 |
| 20260503221026 | 13 | 307 | 6.4 | 11.3 | 0.00 | 0.00 | 0.00 | 94 | 1010.1 |
| 20260503220023 | 13 | 305 | 8.0 | 12.9 | 0.00 | 0.00 | 0.00 | 94 | 1010.1 |
| 20260503215020 | 13 | 320 | 6.4 | 12.9 | 0.00 | 0.00 | 0.00 | 93 | 1010.3 |
| 20260503214018 | 13 | 352 | 6.4 | 14.5 | 0.00 | 0.00 | 0.00 | 92 | 1010.2 |
| 20260503213015 | 13 | 329 | 4.8 | 11.3 | 0.00 | 0.00 | 0.00 | 91 | 1010.4 |
| 20260503212113 | 13 | 331 | 8.0 | 17.7 | 0.00 | 0.00 | 0.00 | 90 | 1010.3 |
| 20260503211110 | 14 | 26 | 4.8 | 12.9 | 0.00 | 0.00 | 0.00 | 89 | 1010.6 |
| 20260503210108 | 14 | 324 | 3.2 | 6.4 | 0.00 | 0.00 | 0.00 | 88 | 1010.5 |
| 20260503205104 | 14 | 2 | 4.8 | 9.7 | 0.00 | 0.00 | 0.00 | 87 | 1010.4 |
| 20260503204102 | 14 | 330 | 4.8 | 6.4 | 0.00 | 0.00 | 0.00 | 87 | 1010.5 |
| 20260503203059 | 14 | 328 | 4.8 | 12.9 | 0.00 | 0.00 | 0.00 | 88 | 1010.6 |
| 20260503202057 | 14 | 313 | 4.8 | 9.7 | 0.00 | 0.00 | 0.00 | 89 | 1010.6 |
| 20260503201054 | 14 | 351 | 1.6 | 6.4 | 0.00 | 0.00 | 0.00 | 89 | 1010.6 |
| 20260503200052 | 14 | 335 | 1.6 | 6.4 | 0.00 | 0.00 | 0.00 | 89 | 1010.4 |
| 20260503195049 | 14 | 300 | 4.8 | 6.4 | 0.00 | 0.00 | 0.00 | 89 | 1010.4 |
| 20260503194047 | 14 | 346 | 4.8 | 6.4 | 0.00 | 0.00 | 0.00 | 89 | 1010.3 |
| 20260503193044 | 14 | 345 | 4.8 | 9.7 | 0.00 | 0.00 | 0.00 | 89 | 1010.3 |
| 20260503192041 | 14 | 14 | 6.4 | 14.5 | 0.00 | 0.00 | 0.00 | 88 | 1010.2 |
| 20260503191041 | 14 | 332 | 6.4 | 11.3 | 0.00 | 0.00 | 0.00 | 88 | 1010.1 |
| 20260503190036 | 14 | 0 | 8.0 | 14.5 | 0.00 | 0.00 | 0.00 | 87 | 1010.0 |
| 20260503185034 | 14 | 18 | 8.0 | 14.5 | 0.00 | 0.00 | 0.00 | 86 | 1010.1 |
| 20260503184031 | 14 | 23 | 4.8 | 9.7 | 0.00 | 0.00 | 0.00 | 85 | 1010.2 |
| 20260503183028 | 14 | 338 | 6.4 | 11.3 | 0.00 | 0.00 | 0.00 | 83 | 1010.1 |
| 20260503182026 | 14 | 333 | 6.4 | 12.9 | 0.00 | 0.00 | 0.00 | 81 | 1010.1 |
| 20260503181023 | 15 | 338 | 3.2 | 11.3 | 0.00 | 0.00 | 0.00 | 80 | 1010.1 |
| 20260503180021 | 15 | 341 | 4.8 | 9.7 | 0.00 | 0.00 | 0.00 | 80 | 1010.0 |
| 20260503175018 | 15 | 25 | 4.8 | 9.7 | 0.00 | 0.00 | 0.00 | 80 | 1010.1 |
| 20260503174015 | 15 | 351 | 6.4 | 12.9 | 0.00 | 0.00 | 0.00 | 78 | 1009.8 |
| 20260503173112 | 15 | 359 | 9.7 | 17.7 | 0.00 | 0.00 | 0.00 | 75 | 1009.8 |
| 20260503172110 | 15 | 355 | 6.4 | 14.5 | 0.00 | 0.00 | 0.00 | 74 | 1009.8 |
| 20260503171107 | 15 | 15 | 8.0 | 17.7 | 0.00 | 0.00 | 0.00 | 74 | 1009.8 |
| 20260503170105 | 15 | 23 | 11.3 | 20.9 | 0.00 | 0.00 | 0.00 | 76 | 1009.8 |
| 20260503131105 | 17 | 278 | 3.2 | 11.3 | 0.00 | 0.00 | 0.00 | 72 | 1011.5 |
| 20260503081046 | 15 | 3 | 6.4 | 12.9 | 0.00 | 0.00 | 0.00 | 81 | 1012.2 |
| 20260503072033 | 15 | 350 | 6.4 | 12.9 | 0.00 | 0.00 | 0.00 | 87 | 1012.3 |
| 20260503071030 | 14 | 23 | 6.4 | 11.3 | 0.00 | 0.00 | 0.00 | 89 | 1012.1 |
| 20260503055110 | 14 | 2 | 6.4 | 11.3 | 0.00 | 0.00 | 0.00 | 88 | 1012.3 |
| 20260503054107 | 14 | 2 | 3.2 | 9.7 | 0.00 | 0.00 | 0.00 | 87 | 1012.3 |
| 20260503053104 | 14 | 9 | 3.2 | 6.4 | 0.00 | 0.00 | 0.00 | 87 | 1012.2 |
| 20260503052102 | 14 | 322 | 3.2 | 6.4 | 0.00 | 0.00 | 0.00 | 86 | 1012.1 |